Regional Weather Roundup
Issued by NWS

Home | Current Version | Previous Version | Text Only | Print | Product List | Glossary On
Versions: 1 2 3 4 5 6 7 8 9 10 11 12 13 14 15 16 17 18 19 20 21 22 23 24 25 26 27 28 29 30 31 32 33 34 35 36 37 38 39 40 41 42 43 44 45 46 47 48 49 50
000
ASUS43 KMPX 191701
RWRMN
WEATHER ROUNDUP FOR MINNESOTA
NATIONAL WEATHER SERVICE TWIN CITIES/CHANHASSEN MN
1100 AM CST THU JAN 19 2017


NOTE: "FAIR" INDICATES FEW OR NO CLOUDS BELOW 12,000 FEET WITH NO
SIGNIFICANT WEATHER AND/OR OBSTRUCTIONS TO VISIBILITY. N/A MEANS
CURRENT SKY AND/OR WEATHER CONDITIONS ARE NOT AVAILABLE.

MNZ060>063-068>070-191800-
   Twin Cities Metro

CITY           SKY/WX    TMP DP  RH WIND       PRES   REMARKS
TWIN CITIES    MOSUNNY   36  31  82 SE10      29.81S
ST PAUL        SUNNY     35  32  88 SE10      29.83S WCI  27
CRYSTAL        SUNNY     38  31  76 SE10      29.79S
BLAINE         SUNNY     39  36  87 S10       29.79S
LAKEVILLE      SUNNY     34  34 100 SE6       29.81S WCI  29
EDEN PRAIRIE   SUNNY     39  32  76 S10       29.79S
SOUTH ST PAUL  PTSUNNY   34  32  94 SE6       29.82S WCI  28
LAKE ELMO      FAIR      36  32  87 S13       29.82S
$$
MNZ001>005-007-008-013>017-022>024-027-028-191800-
   Northwest Minnesota

CITY           SKY/WX    TMP DP  RH WIND       PRES   REMARKS
BEMIDJI        CLOUDY    32  32 100 S8        29.65F FOG     WCI  25
HALLOCK        CLOUDY    28  27  93 S23       29.56R FOG     WCI  14
ROSEAU         CLOUDY    30  27  86 S15       29.59S WCI  19
WARROAD        CLOUDY    34  30  86 S7        29.60S WCI  28
THIEF RVR FALL CLOUDY    32  31  96 S16       29.62R FOG     WCI  21
CROOKSTON      CLOUDY    30  30 100 S13       29.61F FOG     WCI  20
FOSSTON        CLOUDY    32  30  93 S9        29.64S FOG     WCI  24
DETROIT LAKES  MOSUNNY   36  36 100 SE7       29.65F
MOORHEAD       CLOUDY    32  30  93 S14       29.64F WCI  22
PARK RAPIDS    FOG       34  32  92 S8        29.66F VSB 1/4 WCI  27
MAHNOMEN       PTSUNNY   35  33  94 S9        29.63F WCI  27
$$
MNZ006-009>011-018-025>026-191800-
   North Central Minnesota

CITY           SKY/WX    TMP DP  RH WIND       PRES   REMARKS
BAUDETTE       CLOUDY    28  27  96 S12       29.63R FOG     WCI  18
FLAG ISLAND    CLOUDY    27  21  80 S14       29.59S WCI  15
INTL FALLS     CLOUDY    32  30  92 S8        29.66R FOG     WCI  25
WASKISH        CLOUDY    34  32  93 S6        29.65F WCI  29
BIG FORK       CLOUDY    34  34 100 S12       29.67S FOG     WCI  25
LONGVILLE      FOG       34  34 100 S9        29.68F VSB 1/2 WCI  26
GRAND RAPIDS   MIX PCPN  34  34 100 S10       29.71F VSB 1/4 WCI  26
CRANE LAKE     CLOUDY    32  30  93 S8G18     29.69F FOG     WCI  25
ORR            CLOUDY    32  30  93 S7G16     29.65F FOG     WCI  26
COOK           CLOUDY    34  34 100 S6        29.69F FOG     WCI  29
WALKER         CLOUDY    33  33  99 S10       29.66F FOG     WCI  25
$$
MNZ012-019>021-037-191800-
   Northeast Minnesota

CITY           SKY/WX    TMP DP  RH WIND       PRES   REMARKS
DULUTH         CLOUDY    34  34 100 SW8       29.74F FOG     WCI  27
ELY            CLOUDY    34  34 100 S7        29.71F FOG     WCI  28
HIBBING        FOG       32  32 100 S8        29.71F VSB 1/4 WCI  25
EVELETH        FOG       33  33  99 S9        29.73F VSB 1/2 WCI  26
DULUTH HARBOR  SUNNY     37  34  87 SW6       29.78F
TWO HARBORS    CLOUDY    37  34  87 SW8       29.75F FOG
SILVER BAY     FOG       36  36 100 S6        29.75F VSB 1/2
G MARAIS ARPRT SNOW      30  28  93 S6        29.75F VSB<1/4 WCI  24
$$
MNZ029>031-032-039>041-046>048-054>057-064-191800-
   West Central Minnesota

CITY           SKY/WX    TMP DP  RH WIND       PRES   REMARKS
FERGUS FALLS   SUNNY     36  36 100 S14       29.68F
WHEATON        SUNNY     41  39  93 SE12      29.65S
MORRIS         SUNNY     36  34  93 SE13      29.66F FOG
ALEXANDRIA     SUNNY     37  34  89 S10       29.68F
ELBOW LAKE     FAIR      35  33  95 SE15      29.65S FOG     WCI  25
WADENA         SUNNY     36  34  93 S8        29.66S
GLENWOOD       SUNNY     36  36 100 S8        29.70S
APPLETON       SUNNY     37  34  87 S8        29.68S
ORTONVILLE     SUNNY     34  32  93 SE3       29.65F
MADISON        SUNNY     37  37 100 S8        29.67S
WILLMAR        FAIR      36  34  93 SE13      29.73S
$$
MNZ033>034-036-042>043-049>051-058-059-191800-
   Central Minnesota

CITY           SKY/WX    TMP DP  RH WIND       PRES   REMARKS
ST CLOUD       SUNNY     34  34 100 S7        29.74F WCI  28
SAUK CENTRE    FAIR      33  32  96 SE9       29.71S WCI  25
PAYNESVILLE    SUNNY     36  36  99 SE7       29.73F
AITKIN         CLOUDY    37  32  81 S7        29.71F HAZE
PINE RIVER     FOG       34  34 100 S7        29.73F VSB 1/2 WCI  28
BRAINERD       SUNNY     36  33  89 S10       29.71F
STAPLES        SUNNY     36  36 100 S9        29.68F
LONG PRAIRIE   FAIR      32  32 100 SE13      29.70F FOG     WCI  22
LITTLE FALLS   SUNNY     34  32  93 S9        29.72F WCI  26
LITCHFIELD     SUNNY     37  36  93 S7        29.75F
BUFFALO        SUNNY     39  33  78 S7        29.78F
MAPLE LAKE     SUNNY     38  35  86 S7        29.77S
HUTCHINSON     FOG       33  33  99 SE8       29.78S VSB 1/4 WCI  27
$$
MNZ037-044-045-052-053-191800-
   East Central Minnesota

CITY           SKY/WX    TMP DP  RH WIND       PRES   REMARKS
PRINCETON      SUNNY     39  37  93 SE7       29.76F
MORA             N/A     34  32  93 CALM      29.78F FOG
CAMBRIDGE      SUNNY     39  32  75 S10       29.75F
RUSH CITY      SUNNY     37  32  81 S9        29.78S
MOOSE LAKE     CLOUDY    34  32  93 S6        29.74F FOG     WCI  29
HINCKLEY       FAIR      36  32  87 S7        29.77F
CLOQUET        PTSUNNY   36  34  93 S8        29.74F FOG
MCGREGOR       CLOUDY    34  34 100 SE7       29.73F WCI  28
$$
MNZ071>073-080-081-089-090-097-098-191800-
   Southwest Minnesota

CITY           SKY/WX    TMP DP  RH WIND       PRES   REMARKS
MONTEVIDEO     SUNNY     41  36  81 S8        29.70F
GRANITE FALLS  SUNNY     38  34  85 SE13      29.73S
CANBY          SUNNY     41  36  81 CALM      29.68S
MARSHALL       SUNNY     41  36  82 S14       29.71R
REDWOOD FALLS  SUNNY     36  32  85 SE15      29.74S FOG
OLIVIA         SUNNY     36  34  93 SE12      29.74R FOG
PIPESTONE      PTSUNNY   37  36  93 S9        29.69S FOG
WINDOM         PTSUNNY   36  34  93 S8        29.76S FOG
WORTHINGTON    FOG       34  33  96 S12       29.75S VSB 1   WCI  25
JACKSON        PTSUNNY   34  32  93 S14       29.76F FOG     WCI  24
TRACY          SUNNY     41  37  84 S14G20    29.72S
SLAYTON        SUNNY     37  36  93 SE12      29.73S
$$
MNZ065>067-074>077-082>085-091>093-191800-
   South Central Minnesota

CITY           SKY/WX    TMP DP  RH WIND       PRES   REMARKS
MANKATO        CLOUDY    34  32  92 S8        29.80S FOG     WCI  27
NEW ULM        CLOUDY    34  32  93 S7        29.78S FOG     WCI  28
ST JAMES       CLOUDY    34  34 100 S12       29.79F FOG     WCI  25
FAIRMONT       CLOUDY    34  33  96 S12       29.79F FOG     WCI  25
GLENCOE        FOG       34  35 100 S6        29.78R VSB 3/4 WCI  29
FARIBAULT      MOSUNNY   36  32  87 SE9       29.81F FOG
OWATONNA       CLOUDY    34  30  86 SE9       29.81F FOG     WCI  26
WASECA         SUNNY     32  32 100 SE9       29.82S FOG     WCI  24
ALBERT LEA     FOG       30  30 100 SE12      29.81F VSB 1/4 WCI  21
$$
MNZ078>079-086>088-094>096-191800-
   Southeast Minnesota

CITY           SKY/WX    TMP DP  RH WIND       PRES   REMARKS
ROCHESTER      FOG       30  30 100 SE13      29.84F VSB<1/4 WCI  20
RED WING       CLOUDY    32  30  93 SE9       29.84F FOG     WCI  24
STANTON        CLOUDY    34  31  90 S6        29.80F FOG     WCI  29
DODGE CENTER   FOG       30  30 100 SE10      29.82F VSB 1/4 WCI  21
WINONA         CLOUDY    34  32  93 SE5       29.89F WCI  30
AUSTIN         FOG       30  28  93 S7        29.84S VSB<1/4 WCI  23
PRESTON        FOG       30  29  97 SE5       29.85F VSB<1/4 WCI  25
$$
ABBREVIATIONS USED IN REMARKS
   TC - TEMPERATURES IN CELSIUS
  WCI - WIND CHILL INDEX
   HX - HEAT INDEX
  VSB - VISIBILITY
$$




USA.gov is the U.S. government's official web portal to all federal, state and local government web resources and services.